Weather History for KISW - August, 2013

Change the Weather History Date:

Tuesday, August 27, 2013

  Actual Average Record
Temperature  
Mean Temperature 86 °F -  
Max Temperature 97 °F 79 °F - (-1)
Min Temperature 75 °F 56 °F - (-1)
Cooling Degree Days 20    
Growing Degree Days 36 (Base 50)    
Moisture  
Dew Point 72 °F    
Average Humidity 72    
Maximum Humidity 94    
Minimum Humidity 43    
Precipitation  
Precipitation 0.02 in - - ()
Sea Level Pressure  
Sea Level Pressure 29.86 in    
Wind  
Wind Speed 6 mph (South)    
Max Wind Speed 15 mph    
Max Gust Speed 21 mph    
Visibility 10 miles    
Events Rain , Thunderstorm    
Averages and records for this station are not official NWS values.
T = Trace of Precipitation, MM = Missing Value Source: NWS Daily Summary

Daily Weather History Graph

Daily Weather History Graph

Search for Another Location

Airport or City:

Trip Planner

Search our weather history database for the weather conditions in past years. The results will help you decide how hot, cold, wet, or windy it might be!

Date:

Astronomy

Aug. 27, 2013 Rise Set
Actual Time 6:16 AM CDT 7:44 PM CDT
Civil Twilight 5:46 AM CDT 8:14 PM CDT
Nautical Twilight 5:09 AM CDT 8:50 PM CDT
Astronomical Twilight 4:30 AM CDT 9:29 PM CDT
Moon 11:20 PM CDT (8/27) 1:31 PM CDT (8/27)
Length of Visible Light 14h 27m
Length of Day
13h 27m
Waning Gibbous, 57% of the Moon is Illuminated
Aug 27
Waning Gibbous
Aug 28
Last Quarter
Sep 5
New
Sep 12
First Quarter
Sep 19
Full

Hourly Weather History & Observations

Time (CDT) Temp. Heat Index Dew Point Humidity Pressure Visibility Wind Dir Wind Speed Gust Speed Precip Events Conditions
12:54 AM 80.1 °F 84.5 °F 73.9 °F 81% 29.92 in 10.0 mi South 3.5 mph - N/A   Clear
1:54 AM 79.0 °F - 73.0 °F 82% 29.90 in 10.0 mi SSW 3.5 mph - 0.00 in   Clear
2:54 AM 78.1 °F - 73.0 °F 84% 29.90 in 10.0 mi Calm Calm - N/A   Clear
3:54 AM 75.9 °F - 72.0 °F 87% 29.89 in 10.0 mi SSE 4.6 mph - N/A   Clear
4:54 AM 75.9 °F - 71.1 °F 85% 29.88 in 10.0 mi South 4.6 mph - N/A   Clear
5:54 AM 75.0 °F - 71.1 °F 87% 29.89 in 10.0 mi South 5.8 mph - 0.00 in   Mostly Cloudy
6:54 AM 75.9 °F - 70.0 °F 82% 29.87 in 10.0 mi South 5.8 mph - N/A   Clear
7:54 AM 77.0 °F - 71.1 °F 82% 29.88 in 10.0 mi SSW 3.5 mph - N/A   Clear
8:54 AM 81.0 °F 84.4 °F 70.0 °F 69% 29.86 in 10.0 mi SSW 10.4 mph - N/A   Clear
9:54 AM 84.9 °F 88.8 °F 69.1 °F 59% 29.85 in 10.0 mi SW 12.7 mph - N/A   Clear
10:54 AM 88.0 °F 92.1 °F 69.1 °F 53% 29.84 in 10.0 mi West 9.2 mph - N/A   Clear
11:54 AM 90.0 °F 94.5 °F 69.1 °F 50% 29.84 in 10.0 mi SW 9.2 mph - N/A   Clear
12:54 PM 91.9 °F 96.9 °F 69.1 °F 47% 29.83 in 10.0 mi WSW 5.8 mph - N/A   Clear
1:54 PM 95.0 °F 100.7 °F 69.1 °F 43% 29.80 in 10.0 mi SW 10.4 mph - N/A   Clear
2:54 PM 96.1 °F 102.9 °F 70.0 °F 43% 29.79 in 10.0 mi WSW 6.9 mph - N/A   Clear
3:54 PM 96.1 °F 102.9 °F 70.0 °F 43% 29.79 in 10.0 mi WSW 10.4 mph - N/A   Clear
4:54 PM 96.1 °F 102.9 °F 70.0 °F 43% 29.79 in 10.0 mi WSW 9.2 mph - N/A   Unknown
5:54 PM 93.0 °F 100.1 °F 71.1 °F 49% 29.80 in 10.0 mi West 9.2 mph - N/A   Mostly Cloudy
6:54 PM 90.0 °F 99.0 °F 73.9 °F 59% 29.81 in 10.0 mi North 6.9 mph - N/A   Overcast
7:54 PM 87.1 °F 97.3 °F 75.9 °F 69% 29.83 in 10.0 mi NE 10.4 mph - N/A   Overcast
8:54 PM 82.0 °F 88.6 °F 75.0 °F 79% 29.86 in 10.0 mi East 15.0 mph 20.7 mph 0.00 in   Overcast
9:17 PM 80.6 °F 85.4 °F 73.4 °F 79% 29.88 in 10.0 mi East 12.7 mph - N/A Thunderstorm Overcast
9:38 PM 78.8 °F - 73.4 °F 83% 29.91 in 9.0 mi East 6.9 mph - 0.01 in Rain , Thunderstorm Rain
9:52 PM 77.0 °F - 73.4 °F 89% 29.90 in 10.0 mi SE 5.8 mph - 0.01 in Rain Light Rain
9:54 PM 77.0 °F - 73.0 °F 88% 29.89 in 10.0 mi SE 4.6 mph - 0.01 in   Overcast
10:13 PM 75.2 °F - 73.4 °F 94% 29.91 in 10.0 mi Calm Calm - N/A Thunderstorm Mostly Cloudy
10:32 PM 77.0 °F - 73.4 °F 89% 29.92 in 10.0 mi North 3.5 mph - N/A   Overcast
10:54 PM 77.0 °F - 73.0 °F 88% 29.89 in 10.0 mi Calm Calm - 0.01 in   Overcast
11:51 PM 77.0 °F - 73.4 °F 89% 29.92 in 10.0 mi ENE 5.8 mph - N/A   Overcast
11:54 PM 75.9 °F - 73.0 °F 91% 29.89 in 10.0 mi ENE 5.8 mph - N/A   Overcast